www.pogodaiklimat.ru
ПОГОДА в Кэмп-Дэвиде
Время
и дата
09:01 07.12
09:21 07.12
09:45 07.12
09:52 07.12
09:54 07.12
10:54 07.12
11:54 07.12
12:02 07.12
12:13 07.12
12:30 07.12
12:38 07.12
12:54 07.12
13:54 07.12
14:54 07.12
15:54 07.12
16:54 07.12
17:54 07.12
18:54 07.12
19:09 07.12
19:17 07.12
19:27 07.12
19:42 07.12
19:54 07.12
20:54 07.12
21:54 07.12
22:54 07.12
23:30 07.12
23:54 07.12
00:54 08.12
01:54 08.12
02:54 08.12
03:54 08.12
05:54 08.12
06:54 08.12
07:24 08.12
07:54 08.12
08:54 08.12
09:54 08.12
10:54 08.12
11:44 08.12
11:54 08.12
12:03 08.12
12:27 08.12
12:36 08.12
12:54 08.12
13:24 08.12
13:54 08.12
14:03 08.12
Ветер
(напр.,м/с)
Видим. Явления Облачность Т
(С)
Тd
(С)
f
(%)
Тe
(С)
Тes
(С)
Комфортность P
(гПа)
Po
(гПа)
Тmin
(С)
Tmax
(С)
R
(мм)
R24
(мм)
S
(см)
ЮЗ 4
{8}
16 км 5/2 120 m
[Ac]
+11.1 +10.0 93 +9 +9 955.8
ЮЗ 4
{8}
16 км 8/8 120 m
[Ac]
+11.1 +10.6 97 +9 +9 955.4
З 4
{9}
16 км 8/5 120 m
[Ac]
+11.1 +10.0 93 +9 +9 955.8
ЮЗ 4
{10}
14 км 8/8 90 m
[Ac]
+11.0 +10.0 94 +8 +9 955.4
ЮЗ 4
{10}
14 км 10/8 90 m
[Ac]
+10.6 +10.0 96 +8 +8 1022.2 955.4 0.8
ЮЗ 5
{9}
10 км дымка 10/10 60 м +10.6 +10.0 96 +8 +8 1021.9 955.4
З 5
{11}
8 км дымка 10/10 60 м +11.7 +11.1 96 +9 +9 1021.1 954.8
З 6
{10}
3 км слабый дождь, дымка 10/10 60 m
[Ns]
+11.7 +11.1 96 +9 +9 954.8
З 6
{10}
800 м туман ?/? +11.1 +11.1 100 +8 +8 954.5
З 5
{9}
3 км дымка 10/10 60 м +11.7 +11.1 96 +9 +9 954.8
З 5
{11}
10 км дымка 10/10 60 м +12.2 +11.7 97 +10 +10 954.8
З 5
{9}
16 км 10/10 60 м +13.3 +11.7 90 +11 +11 1021.3 955.1 +8.9 +13.3 1.0
З 5 16 км ясно +13.3 +11.7 90 +11 +14 1020.4 954.2
З 5 16 км ясно +13.9 +12.2 89 +12 +14 1020.1 953.8
З 5 16 км 2/2 1470 м +13.3 +11.7 90 +11 +12 1020.2 953.8
З 4 16 км ясно +12.8 +11.7 93 +11 +11 1020.5 954.2
З 5
{9}
16 км ясно +12.8 +11.7 93 +11 +11 1020.5 954.5
СЗ 4 16 км ясно +12.8 +11.1 89 +11 +11 1021.6 955.4 +12.2 +13.9
З 4
{8}
10 км дымка 5/5 90 м +11.7 +11.1 96 +9 +9 955.4
З 4 4 км дымка 8/8 60 м +11.7 +11.1 96 +9 +9 955.4
З 3 2 км дымка 10/10 60 м +11.1 +10.6 97 +9 +9 955.8
З 5 5 км дымка 5/5 60 м +10.6 +10.0 96 +8 +8 955.8
З 5
{8}
8 км дымка 5/5 60 м +11.1 +10.0 93 +8 +8 1022.1 955.8
СЗ 5
{8}
16 км ясно +11.1 +9.4 89 +8 +8 1022.6 956.4
СЗ 5 16 км 2/2 930 м +10.0 +8.9 93 +7 +7 1023.0 956.7
С 3
{8}
16 км 8/8 570 м +10.0 +8.9 93 +8 +8 1023.3 956.7
СЗ 4
{8}
16 км 8/8 570 м +10.0 +8.3 89 +7 +7 956.7
С 5
{8}
16 км 2/2 600 м +10.0 +8.3 89 +7 +7 1022.8 956.4
СЗ 6
{12}
16 км ясно +9.4 +7.2 86 +6 +6 1022.6 956.4 +8.9 +12.8
СЗ 5
{11}
16 км 8/8 630 м +8.9 +6.1 83 +5 +5 1022.7 956.4
СЗ 5
{10}
16 км 10/10 630 м +8.3 +5.6 83 +5 +5 1023.5 957.0
СЗ 4
{11}
16 км 10/10 720 м +7.8 +4.4 79 +5 +5 1023.7 957.3
нст 3 16 км 10/10 720 м +7.2 +5.0 86 +4 +4 1024.5 958.0
нст 3
{9}
16 км 10/10 780 м +7.2 +3.3 76 +4 +4 1025.2 958.6 +7.2 +9.4 1.0
нст 3
{8}
16 км 5/5 810 м +6.7 +3.3 79 +4 +4 958.0
нст 3
{8}
16 км ясно +6.7 +2.8 76 +4 +4 1024.7 958.0
СЗ 5
{10}
16 км ясно +7.2 +2.2 71 +3 +4 1025.2 958.6
С 4 16 км 8/8 810 м +8.3 +1.7 63 +5 +6 1026.0 959.2
СЗ 4
{9}
16 км 10/10 780 м +7.8 +2.2 68 +5 +5 1026.6 959.6
нст 3
{8}
16 км 8/8 660 м +8.3 +2.2 65 +6 +7 958.9
С 4 16 км 8/8 690 м +8.3 +2.2 65 +5 +6 1025.6 958.9
нст 2
{8}
16 км 8/8 840 м +8.3 +2.2 65 +7 +8 958.6
нст 2
{10}
16 км 5/5 690 м +7.8 +2.2 68 +6 +8 958.6
СЗ 4
{8}
16 км 8/8 750 м +8.3 +2.2 65 +5 +6 958.3
СЗ 4 16 км 8/8 780 м +7.8 +2.2 68 +5 +5 1024.8 958.0 +6.1 +9.4
СЗ 4 16 км 5/5 720 м +7.8 +1.7 65 +5 +6 957.7
нст 3 16 км 5/5 810 м +7.8 +2.2 68 +5 +7 1024.3 957.3
нст 3 16 км 8/8 810 м +7.8 +2.2 68 +5 +6 957.3
Местоположение метеостанции Camp David: широта 39.6450 долгота -77.4680 высота над уровнем моря 555 м.
В архиве по умолчанию представлена погода в Кэмп-Дэвиде за последние 1-2 суток. Обновление информации о фактической погоде в базе происходит ежечасно! Архивные данные за месяц целиком и за предыдущие месяцы Вы можете получить, выбрав интересующий диапазон дат из раскрывающегося списка и нажав кнопку "Ввод!".
Внимание! Архив погоды МЕТАР в базе сайта по станциям, не включенным в климатический монитор, хранится не более 60 дней. Нет смысла пытаться выбрать более раннюю дату.
*Определитесь, кто Вы:
Внимание! Время в таблицах - местное (без учета летнего времени). Для получения всемирного времени необходимо вычесть поправку, которая равна -5 ч.
Смотрите также архив погоды в соседних городах и на ближайших метеорологических станциях:
Партнеры нашего сайта:      
Пояснения к столбцам:
  • Ветер - указаны скорость ветра в м/с - средняя за 10 мин, порывы в срок и между сроками (в фигурных скобках) и направление, откуда дует ветер: С - северный,
  • СВ - северо-восточный, В - восточный, ЮВ - юго-восточный, Ю - южный, ЮЗ - юго-западный, З - западный, СЗ - северо-западный.
  • Видимость - горизонтальная дальность видимости в метрах или километрах. При видимости от 1 до 10 км при отсутствии осадков обычно наблюдается дымка, при ухудшении видимости до 1 км и менее - туман. В сухую погоду видимость может ухудшаться дымом, пылью или мглою.
  • Явления - указаны атмосферные явления, наблюдавшиеся в срок или в последний час перед сроком; фигурными скобками обозначены явления, наблюдавшиеся между сроками (за 1-3 часа до срока); квадратными скобками обозначены град или гололедные отложения с указанием их диаметра в мм.
  • Облачность - указаны через наклонную черту общая и нижняя облачность в баллах и высота нижней границы облаков в метрах; квадратными скобками обозначены формы облаков: Ci - перистые, Cs - перисто-слоистые, Cc - перисто-кучевые, Ac - высококучевые, As - высокослоистые, Sc - слоисто-кучевые, Ns - слоисто-дождевые, Cu - кучевые, Cb - кучево-дождевые. Подробнее классификацию облаков см. в Атласе облаков (PDF).
  • T - Температура воздуха - температура, измеренная на высоте 2 м над землей.
  • Td - Температура точки росы - температура, при понижении до которой содержащийся в воздухе водяной пар достигнет насыщения.
  • f - Относительная влажность воздуха - влажноcть воздуха, измеренная на высоте 2 м над землей.
  • Te - Эффективная температура - температура, которую ощущает одетый по сезону человек в тени. Характеристика душности погоды. При расчете учитывается влияние влажности воздуха и скорости ветра на теплоощущения человека.
  • Tes - Эффективная температура на солнце - температура, которую ощущает человек, с поправкой на солнечный нагрев. Характеристика знойности погоды. Зависит от высоты солнца над горизонтом, облачности и скорости ветра. Ночью, в пасмурную погоду, а также при ветре 12 м/с и более поправка равна нулю.
  • P - Атмосферное давление - приведенное к уровню моря атмосферное давление.
  • Po - Атмосферное давление - измеренное на уровне метеостанции атмосферное давление.
  • Tmin - Минимальная температура - минимум температуры воздуха на высоте 2 м над землей.
  • Tmax - Максимальная температура - максимум температуры воздуха на высоте 2 м над землей.
  • R - Количество осадков - Количество выпавших осадков за период времени, мм. При наведении курсора мыши на число - период времени, за который выпало указанное количество осадков.
  • R24 - Количество осадков - Количество выпавших осадков за 24 часа, мм.
  • S - Снежный покров - Высота снежного покрова, см. При наведении курсора мыши на число - состояние снежного покрова и степень покрытия местности в баллах.